Waarnemingen

Advertentie
Mijn weer
Stockholm/Arlanda, Zweden (2460): temperatuur & dauwpunt: 14.11.2018 13:00:00 - 20.11.2018 13:00:00 (CET)Stockholm/Arlanda, Zweden (2460): windsnelheid: 14.11.2018 13:00:00 - 20.11.2018 13:00:00 (CET)Stockholm/Arlanda, Zweden (2460): windrichting: 14.11.2018 13:00:00 - 20.11.2018 13:00:00 (CET)Stockholm/Arlanda, Zweden (2460): luchtdruk: 14.11.2018 13:00:00 - 20.11.2018 13:00:00 (CET)Stockholm/Arlanda, Zweden (2460): zicht: 14.11.2018 13:00:00 - 20.11.2018 13:00:00 (CET)
Datum & Tijd tt [°C] td [°C] ff [km/u] ff [kn] dd ppp [hPa] vv [km]
20.11.2018 13:00:00 - - - - - - -
20.11.2018 12:00:00 1,4 -1,2 7 4 W 1032,7 50
20.11.2018 11:00:00 1,4 -1,0 7 4 NW 1033,0 40
20.11.2018 10:00:00 0,3 -1,6 4 2 W 1033,7 50
20.11.2018 09:00:00 -0,1 -1,8 4 2 WZW 1033,8 40
20.11.2018 08:00:00 -0,4 -2,5 4 2 NW 1034,1 30
20.11.2018 07:00:00 -0,4 -2,6 0 0 N 1034,1 45
20.11.2018 06:00:00 -0,3 -2,6 7 4 NNW 1034,5 50
20.11.2018 05:00:00 -0,4 -2,6 4 2 N 1035,1 50
20.11.2018 04:00:00 -0,7 -2,7 7 4 N 1035,8 45
20.11.2018 03:00:00 -0,9 -2,6 0 0 N 1036,1 50
20.11.2018 02:00:00 -0,8 -2,5 7 4 N 1036,9 45
20.11.2018 01:00:00 -1,3 -2,7 7 4 N 1037,3 45
20.11.2018 00:00:00 -1,5 -3,1 4 2 NO 1037,8 45
19.11.2018 23:00:00 -2,6 -3,4 4 2 NW 1038,1 40
19.11.2018 22:00:00 -3,2 -4,3 4 2 NNO 1038,3 50
19.11.2018 21:00:00 -3,5 -4,5 7 4 N 1038,7 50
19.11.2018 20:00:00 -3,3 -4,1 4 2 N 1038,5 50
19.11.2018 19:00:00 -2,8 -3,6 4 2 N 1038,9 50
19.11.2018 18:00:00 -2,3 -3,7 4 2 N 1039,0 45
19.11.2018 17:00:00 -1,1 -3,1 7 4 NNO 1039,0 45
19.11.2018 16:00:00 0,5 -2,9 11 6 NNO 1039,0 50
19.11.2018 15:00:00 1,7 -2,6 11 6 NNO 1039,1 50
19.11.2018 14:00:00 1,9 -2,6 11 6 NNO 1039,3 50
19.11.2018 13:00:00 2,1 -2,8 11 6 NNO 1039,5 50
19.11.2018 12:00:00 2,1 -2,8 14 8 NNO 1039,7 50
19.11.2018 11:00:00 2,1 -2,8 14 8 NNO 1039,7 50
19.11.2018 10:00:00 2,0 -2,5 11 6 ONO 1039,9 35
19.11.2018 09:00:00 1,8 -2,5 7 4 O 1039,7 35
19.11.2018 08:00:00 1,9 -2,2 7 4 ONO 1039,6 45
19.11.2018 07:00:00 2,1 -2,2 7 4 NO 1039,3 50
19.11.2018 06:00:00 2,2 -2,0 11 6 NNO 1039,0 50
19.11.2018 05:00:00 2,3 -2,0 11 6 NO 1038,8 50
19.11.2018 04:00:00 2,4 -1,8 14 8 NNO 1039,2 50
19.11.2018 03:00:00 2,6 -1,8 18 10 NNO 1039,2 45
19.11.2018 02:00:00 2,6 -1,6 11 6 NNO 1039,2 50
19.11.2018 01:00:00 2,8 -1,6 14 8 NNO 1039,1 50
19.11.2018 00:00:00 2,9 -1,5 14 8 NNO 1039,3 50
18.11.2018 23:00:00 3,1 -1,6 18 10 NNO 1039,4 50
18.11.2018 22:00:00 3,4 -1,4 22 12 NNO 1039,5 45
18.11.2018 21:00:00 3,6 -1,0 22 12 NNO 1039,3 45
18.11.2018 20:00:00 3,7 -0,3 18 10 NNO 1039,3 45
18.11.2018 19:00:00 3,7 -0,3 25 14 NNO 1039,3 50
18.11.2018 18:00:00 3,7 -0,3 18 10 N 1039,6 50
18.11.2018 17:00:00 4,2 0,2 22 12 N 1039,7 50
18.11.2018 16:00:00 4,7 0,6 14 8 N 1039,6 50
18.11.2018 15:00:00 5,0 0,6 22 12 N 1039,4 50
18.11.2018 14:00:00 5,5 1,6 18 10 N 1039,5 50
18.11.2018 13:00:00 6,0 1,5 25 14 N 1039,5 50
18.11.2018 12:00:00 6,0 2,5 18 10 N 1039,4 50
18.11.2018 11:00:00 6,0 2,6 14 8 N 1039,2 50
18.11.2018 10:00:00 5,9 2,7 18 10 NNO 1039,2 50
18.11.2018 09:00:00 5,7 3,4 18 10 N 1039,0 50
18.11.2018 08:00:00 5,5 3,3 18 10 N 1038,5 50
18.11.2018 07:00:00 5,2 3,4 22 12 N 1038,0 45
18.11.2018 06:00:00 3,8 2,6 18 10 N 1038,0 50
18.11.2018 05:00:00 2,9 2,0 14 8 N 1037,8 45
18.11.2018 04:00:00 3,1 1,9 14 8 N 1037,7 50
18.11.2018 03:00:00 3,0 2,1 14 8 NNW 1037,4 45
18.11.2018 02:00:00 3,0 2,1 14 8 N 1037,2 45
18.11.2018 01:00:00 3,1 1,9 14 8 NNW 1037,2 40
18.11.2018 00:00:00 3,1 2,2 11 6 N 1037,1 40
17.11.2018 23:00:00 3,5 2,3 14 8 NNW 1037,0 40
17.11.2018 22:00:00 3,1 2,7 11 6 NNW 1036,7 20
17.11.2018 21:00:00 2,0 1,9 4 2 NW 1036,6 10
17.11.2018 20:00:00 1,4 1,3 4 2 WNW 1036,7 0,6
17.11.2018 19:00:00 2,5 2,2 0 0 N 1036,9 4,8
17.11.2018 18:00:00 2,3 2,0 4 2 W 1036,9 6
17.11.2018 17:00:00 2,9 2,6 4 2 W 1037,1 7
17.11.2018 16:00:00 4,2 3,8 4 2 WNW 1037,4 13
17.11.2018 15:00:00 5,0 3,7 4 2 W 1037,5 23
17.11.2018 14:00:00 6,5 4,3 4 2 NW 1037,7 30
17.11.2018 13:00:00 6,5 4,3 7 4 W 1037,8 30
17.11.2018 12:00:00 6,7 4,0 7 4 W 1038,0 28
17.11.2018 11:00:00 6,6 4,3 11 6 W 1038,1 24
17.11.2018 10:00:00 5,8 4,1 7 4 W 1038,1 29
17.11.2018 09:00:00 5,3 4,0 7 4 ZW 1038,0 19
17.11.2018 08:00:00 5,4 3,8 4 2 W 1037,7 20
17.11.2018 07:00:00 5,5 3,8 7 4 WZW 1037,1 20
17.11.2018 06:00:00 5,5 3,8 11 6 WZW 1036,7 19
17.11.2018 05:00:00 5,8 4,1 11 6 WZW 1037,3 19
17.11.2018 04:00:00 5,8 4,0 14 8 ZW 1037,2 22
17.11.2018 03:00:00 5,9 3,9 11 6 ZW 1037,6 23
17.11.2018 02:00:00 5,8 4,0 11 6 ZW 1037,3 24
17.11.2018 01:00:00 5,9 3,9 11 6 WZW 1037,6 20
17.11.2018 00:00:00 5,7 4,0 14 8 WZW 1037,2 24
16.11.2018 23:00:00 5,4 4,0 14 8 ZW 1037,0 20
16.11.2018 22:00:00 5,2 3,9 11 6 WZW 1037,0 19
16.11.2018 21:00:00 5,7 3,9 14 8 ZW 1036,4 23
16.11.2018 20:00:00 6,3 4,0 18 10 ZW 1036,5 35
16.11.2018 19:00:00 7,2 4,3 18 10 ZW 1036,3 30
16.11.2018 18:00:00 7,1 4,2 18 10 ZW 1036,1 30
16.11.2018 17:00:00 6,7 4,0 14 8 ZZW 1035,5 35
16.11.2018 16:00:00 7,1 4,2 18 10 ZZW 1035,0 40
16.11.2018 15:00:00 8,0 4,4 18 10 ZZW 1034,9 50
16.11.2018 14:00:00 8,8 4,8 18 10 ZZW 1035,0 45
16.11.2018 13:00:00 9,2 5,4 22 12 ZW 1034,9 30
16.11.2018 12:00:00 9,1 5,5 18 10 ZW 1035,0 45
16.11.2018 11:00:00 8,7 5,4 22 12 ZW 1034,8 40
16.11.2018 10:00:00 8,6 6,2 18 10 ZW 1034,8 35
16.11.2018 09:00:00 7,9 6,2 14 8 ZZW 1034,1 25
16.11.2018 08:00:00 7,7 6,2 14 8 ZZW 1033,6 25
16.11.2018 07:00:00 8,0 6,5 14 8 ZW 1033,2 20
16.11.2018 06:00:00 8,2 6,7 14 8 ZW 1032,7 21
16.11.2018 05:00:00 8,4 6,9 18 10 ZZW 1032,3 21
16.11.2018 04:00:00 8,3 6,9 11 6 ZZW 1032,1 23
16.11.2018 03:00:00 7,9 6,5 14 8 ZZW 1031,9 21
16.11.2018 02:00:00 8,5 7,0 14 8 ZW 1031,4 20
16.11.2018 01:00:00 8,6 7,2 14 8 ZW 1030,9 17
16.11.2018 00:00:00 9,4 7,7 14 8 ZW 1030,5 20
15.11.2018 23:00:00 9,7 7,8 14 8 ZW 1029,9 22
15.11.2018 22:00:00 9,6 8,0 14 8 ZW 1029,6 20
15.11.2018 21:00:00 9,6 8,2 18 10 ZW 1029,2 14
15.11.2018 20:00:00 9,4 8,3 14 8 ZZW 1028,8 11
15.11.2018 19:00:00 9,2 8,4 18 10 ZW 1028,3 8
15.11.2018 18:00:00 9,1 8,6 18 10 ZZW 1027,9 13
15.11.2018 17:00:00 8,9 8,4 14 8 ZZW 1027,8 5
15.11.2018 16:00:00 8,7 8,3 14 8 ZZW 1027,5 14
15.11.2018 15:00:00 8,9 7,7 14 8 ZZW 1027,3 5
15.11.2018 14:00:00 9,0 7,4 14 8 ZZW 1026,9 40
15.11.2018 13:00:00 8,7 7,2 18 10 Z 1026,7 40
15.11.2018 12:00:00 8,6 7,1 14 8 ZZW 1026,7 45
15.11.2018 11:00:00 8,2 6,7 14 8 ZZW 1026,4 45
15.11.2018 10:00:00 7,7 6,6 14 8 ZZW 1026,3 28
15.11.2018 09:00:00 7,4 6,8 14 8 Z 1026,1 17
15.11.2018 08:00:00 6,8 6,5 14 8 Z 1025,7 11
15.11.2018 07:00:00 6,3 6,2 14 8 Z 1025,7 6
15.11.2018 06:00:00 5,9 5,6 11 6 ZZW 1025,6 7
15.11.2018 05:00:00 6,2 5,6 14 8 ZZW 1025,3 16
15.11.2018 04:00:00 6,5 5,8 11 6 ZZW 1025,5 24
15.11.2018 03:00:00 6,7 5,6 7 4 ZZW 1025,2 35
15.11.2018 02:00:00 6,7 5,6 11 6 ZZW 1024,9 40
15.11.2018 01:00:00 6,0 5,1 7 4 ZZW 1025,2 45
15.11.2018 00:00:00 6,3 4,6 7 4 ZZW 1024,8 45
14.11.2018 23:00:00 6,7 4,9 7 4 WZW 1024,6 50
14.11.2018 22:00:00 6,5 4,3 11 6 WZW 1024,2 50
14.11.2018 21:00:00 6,9 4,7 11 6 ZW 1023,8 50
14.11.2018 20:00:00 6,9 4,7 7 4 ZW 1023,3 45
14.11.2018 19:00:00 7,6 5,4 11 6 ZW 1023,3 50
14.11.2018 18:00:00 7,8 5,1 7 4 ZW 1022,9 50
14.11.2018 17:00:00 7,5 5,1 11 6 WZW 1022,8 50
14.11.2018 16:00:00 7,4 5,0 7 4 WZW 1022,3 50
14.11.2018 15:00:00 7,4 5,2 7 4 WZW 1022,0 50
14.11.2018 14:00:00 7,4 5,2 11 6 WZW 1021,8 50
14.11.2018 13:00:00 7,3 5,1 11 6 WZW 1021,7 50

tt = temperatuur
td = dauwpunt
ff = windsnelheid
dd = windrichting
ppp = luchtdruk
vv = zicht

Weerstations in de omgeving